Time,TemperatureF,DewpointF,PressureIn,WindDirection,WindDirectionDegrees,WindSpeedMPH,WindSpeedGustMPH,Humidity,HourlyPrecipIn,Conditions,Clouds,dailyrainin,SoftwareType,DateUTC
2013-01-23 00:00:00,25.3,2.8,30.30,East,90,0.0,0.0,33,-99.99,,,-99.99,WSDL version 423,2013-01-23 06:00:00,
2013-01-23 00:02:00,25.2,2.7,30.27,East,90,0.0,0.0,33,-99.99,,,-99.99,WSDL version 423,2013-01-23 06:02:00,
2013-01-23 00:07:00,25.1,2.6,30.27,East,90,0.0,0.0,33,-99.99,,,-99.99,WSDL version 423,2013-01-23 06:07:00,
2013-01-23 00:12:00,25.0,2.5,30.27,East,90,0.0,0.0,33,-99.99,,,-99.99,WSDL version 423,2013-01-23 06:12:00,
2013-01-23 00:16:00,25.0,2.5,30.27,East,90,0.0,0.0,33,-99.99,,,-99.99,WSDL version 423,2013-01-23 06:16:00,
2013-01-23 00:17:00,25.0,2.5,30.27,East,90,0.0,0.0,33,-99.99,,,-99.99,WSDL version 423,2013-01-23 06:17:00,
2013-01-23 00:18:00,25.0,2.5,30.27,East,90,0.0,0.0,33,-99.99,,,-99.99,WSDL version 423,2013-01-23 06:18:00,
2013-01-23 00:19:00,24.9,2.5,30.27,East,90,0.0,0.0,33,-99.99,,,-99.99,WSDL version 423,2013-01-23 06:19:00,
2013-01-23 00:22:00,24.8,2.4,30.27,East,90,0.0,0.0,33,-99.99,,,-99.99,WSDL version 423,2013-01-23 06:22:00,
2013-01-23 00:23:00,24.8,2.3,30.27,East,90,0.0,0.0,33,-99.99,,,-99.99,WSDL version 423,2013-01-23 06:23:00,
2013-01-23 00:25:00,24.8,2.3,30.27,East,90,0.0,0.0,33,-99.99,,,-99.99,WSDL version 423,2013-01-23 06:25:00,
2013-01-23 00:29:00,24.7,2.3,30.27,East,90,0.0,0.0,33,-99.99,,,-99.99,WSDL version 423,2013-01-23 06:29:00,
2013-01-23 00:32:00,24.6,2.2,30.27,East,90,0.0,0.0,33,-99.99,,,-99.99,WSDL version 423,2013-01-23 06:32:00,
2013-01-23 00:34:00,24.6,2.2,30.27,East,90,0.0,0.0,33,-99.99,,,-99.99,WSDL version 423,2013-01-23 06:34:00,
2013-01-23 00:37:00,24.6,2.2,30.27,East,90,0.0,0.0,33,-99.99,,,-99.99,WSDL version 423,2013-01-23 06:37:00,
2013-01-23 00:39:00,24.5,2.1,30.27,East,90,0.0,0.0,33,-99.99,,,-99.99,WSDL version 423,2013-01-23 06:39:00,
2013-01-23 00:40:00,24.5,2.1,30.27,East,90,0.0,0.0,33,-99.99,,,-99.99,WSDL version 423,2013-01-23 06:40:00,
2013-01-23 00:45:00,24.4,2.0,30.27,East,90,0.0,0.9,33,-99.99,,,-99.99,WSDL version 423,2013-01-23 06:45:00,
2013-01-23 00:46:00,24.4,2.0,30.27,East,90,0.0,0.9,33,-99.99,,,-99.99,WSDL version 423,2013-01-23 06:46:00,
2013-01-23 00:47:00,24.4,2.0,30.27,East,90,0.0,0.9,33,-99.99,,,-99.99,WSDL version 423,2013-01-23 06:47:00,
2013-01-23 00:52:00,24.2,1.9,30.27,East,90,0.0,0.9,33,-99.99,,,-99.99,WSDL version 423,2013-01-23 06:52:00,
2013-01-23 00:54:00,24.2,1.9,30.27,East,90,0.0,0.0,33,-99.99,,,-99.99,WSDL version 423,2013-01-23 06:54:00,
2013-01-23 00:57:00,24.2,1.9,30.27,East,90,0.0,0.0,33,-99.99,,,-99.99,WSDL version 423,2013-01-23 06:57:00,
2013-01-23 00:58:00,24.2,1.9,30.27,East,90,0.0,0.0,33,-99.99,,,-99.99,WSDL version 423,2013-01-23 06:58:00,
2013-01-23 00:59:00,24.2,1.9,30.27,East,90,0.0,0.0,33,-99.99,,,-99.99,WSDL version 423,2013-01-23 06:59:00,
2013-01-23 01:01:00,24.2,1.9,30.27,East,90,0.0,0.0,33,-99.99,,,-99.99,WSDL version 423,2013-01-23 07:01:00,
2013-01-23 01:06:00,24.1,1.7,30.27,East,90,0.0,0.0,33,-99.99,,,-99.99,WSDL version 423,2013-01-23 07:06:00,
2013-01-23 01:07:00,24.1,1.7,30.27,East,90,0.0,0.0,33,-99.99,,,-99.99,WSDL version 423,2013-01-23 07:07:00,
2013-01-23 01:09:00,24.1,1.7,30.27,East,90,0.0,0.0,33,-99.99,,,-99.99,WSDL version 423,2013-01-23 07:09:00,
2013-01-23 01:10:00,24.1,1.7,30.27,East,90,0.0,0.0,33,-99.99,,,-99.99,WSDL version 423,2013-01-23 07:10:00,
2013-01-23 01:12:00,24.0,1.7,30.27,East,90,0.0,0.0,33,-99.99,,,-99.99,WSDL version 423,2013-01-23 07:12:00,
2013-01-23 01:14:00,24.0,1.6,30.27,East,90,0.0,0.0,33,-99.99,,,-99.99,WSDL version 423,2013-01-23 07:14:00,
2013-01-23 01:15:00,23.9,1.6,30.27,East,90,0.0,0.0,33,-99.99,,,-99.99,WSDL version 423,2013-01-23 07:15:00,
2013-01-23 01:20:00,23.9,1.5,30.27,East,90,0.0,0.0,33,-99.99,,,-99.99,WSDL version 423,2013-01-23 07:20:00,
2013-01-23 01:22:00,23.9,1.5,30.27,East,90,0.0,0.0,33,-99.99,,,-99.99,WSDL version 423,2013-01-23 07:22:00,
2013-01-23 01:23:00,23.9,1.5,30.27,East,90,0.0,0.0,33,-99.99,,,-99.99,WSDL version 423,2013-01-23 07:23:00,
2013-01-23 01:27:00,23.9,1.5,30.27,East,90,0.0,0.0,33,-99.99,,,-99.99,WSDL version 423,2013-01-23 07:27:00,
2013-01-23 01:28:00,23.9,1.5,30.27,East,90,0.0,0.0,33,-99.99,,,-99.99,WSDL version 423,2013-01-23 07:28:00,
2013-01-23 01:29:00,23.9,1.5,30.27,East,90,0.0,0.0,33,-99.99,,,-99.99,WSDL version 423,2013-01-23 07:29:00,
2013-01-23 01:32:00,23.9,1.5,30.27,East,90,0.0,0.0,33,-99.99,,,-99.99,WSDL version 423,2013-01-23 07:32:00,
2013-01-23 01:33:00,23.9,1.5,30.27,East,90,0.0,0.0,33,-99.99,,,-99.99,WSDL version 423,2013-01-23 07:33:00,
2013-01-23 01:34:00,23.9,1.5,30.27,East,90,0.0,0.0,33,-99.99,,,-99.99,WSDL version 423,2013-01-23 07:34:00,
2013-01-23 01:38:00,23.8,1.5,30.27,East,90,0.0,0.0,33,-99.99,,,-99.99,WSDL version 423,2013-01-23 07:38:00,
2013-01-23 01:39:00,23.8,1.7,30.27,East,90,0.0,0.0,36,-99.99,,,-99.99,WSDL version 423,2013-01-23 07:39:00,
2013-01-23 01:40:00,23.7,1.7,30.27,East,90,0.0,0.0,33,-99.99,,,-99.99,WSDL version 423,2013-01-23 07:40:00,
2013-01-23 01:44:00,23.7,2.8,30.27,East,90,0.7,1.6,36,-99.99,,,-99.99,WSDL version 423,2013-01-23 07:44:00,
2013-01-23 01:49:00,23.8,3.2,30.27,East,90,0.0,1.6,36,-99.99,,,-99.99,WSDL version 423,2013-01-23 07:49:00,
2013-01-23 01:50:00,23.9,3.2,30.27,East,100,0.3,2.2,36,-99.99,,,-99.99,WSDL version 423,2013-01-23 07:50:00,
2013-01-23 01:52:00,23.9,3.2,30.27,ESE,113,0.1,2.2,36,-99.99,,,-99.99,WSDL version 423,2013-01-23 07:52:00,
2013-01-23 01:55:00,23.8,3.2,30.27,East,83,0.0,2.2,36,-99.99,,,-99.99,WSDL version 423,2013-01-23 07:55:00,
2013-01-23 01:57:00,23.8,3.1,30.27,ENE,68,0.0,2.2,36,-99.99,,,-99.99,WSDL version 423,2013-01-23 07:57:00,
2013-01-23 02:02:00,23.7,3.0,30.27,East,98,0.7,2.2,36,-99.99,,,-99.99,WSDL version 423,2013-01-23 08:02:00,
2013-01-23 02:03:00,23.7,3.1,30.27,ESE,110,0.6,2.5,36,-99.99,,,-99.99,WSDL version 423,2013-01-23 08:03:00,
2013-01-23 02:04:00,23.8,3.1,30.27,ESE,113,1.3,2.7,36,-99.99,,,-99.99,WSDL version 423,2013-01-23 08:04:00,
2013-01-23 02:07:00,23.9,3.3,30.27,East,96,0.8,2.7,36,-99.99,,,-99.99,WSDL version 423,2013-01-23 08:07:00,
2013-01-23 02:09:00,24.0,3.3,30.27,ESE,113,0.6,2.7,36,-99.99,,,-99.99,WSDL version 423,2013-01-23 08:09:00,
2013-01-23 02:12:00,24.1,3.4,30.27,ESE,113,1.2,2.7,36,-99.99,,,-99.99,WSDL version 423,2013-01-23 08:12:00,
2013-01-23 02:14:00,24.1,3.4,30.27,ESE,113,0.8,2.7,36,-99.99,,,-99.99,WSDL version 423,2013-01-23 08:14:00,
2013-01-23 02:18:00,24.1,3.4,30.27,ESE,113,0.0,2.7,36,-99.99,,,-99.99,WSDL version 423,2013-01-23 08:18:00,
2013-01-23 02:19:00,24.1,3.4,30.27,ESE,113,0.0,2.7,36,-99.99,,,-99.99,WSDL version 423,2013-01-23 08:19:00,
2013-01-23 02:22:00,24.0,3.3,30.27,SSE,158,0.0,0.9,36,-99.99,,,-99.99,WSDL version 423,2013-01-23 08:22:00,
2013-01-23 02:23:00,24.0,3.3,30.27,SSE,158,0.0,0.9,36,-99.99,,,-99.99,WSDL version 423,2013-01-23 08:23:00,
2013-01-23 02:27:00,23.9,3.2,30.27,East,90,0.0,1.1,36,-99.99,,,-99.99,WSDL version 423,2013-01-23 08:27:00,
2013-01-23 02:29:00,23.9,3.2,30.27,East,90,0.0,1.1,36,-99.99,,,-99.99,WSDL version 423,2013-01-23 08:29:00,
2013-01-23 02:32:00,23.9,3.2,30.27,East,90,0.0,1.1,36,-99.99,,,-99.99,WSDL version 423,2013-01-23 08:32:00,
2013-01-23 02:33:00,23.9,3.2,30.27,East,90,0.0,1.1,36,-99.99,,,-99.99,WSDL version 423,2013-01-23 08:33:00,
2013-01-23 02:34:00,23.9,3.2,30.27,East,90,0.0,1.1,36,-99.99,,,-99.99,WSDL version 423,2013-01-23 08:34:00,
2013-01-23 02:36:00,23.9,3.2,30.27,East,90,0.9,1.6,36,-99.99,,,-99.99,WSDL version 423,2013-01-23 08:36:00,
2013-01-23 02:37:00,23.9,3.2,30.27,East,95,1.0,2.7,36,-99.99,,,-99.99,WSDL version 423,2013-01-23 08:37:00,
2013-01-23 02:40:00,23.9,3.2,30.27,East,90,0.3,2.7,36,-99.99,,,-99.99,WSDL version 423,2013-01-23 08:40:00,
2013-01-23 02:41:00,23.9,3.2,30.27,East,90,0.0,2.7,36,-99.99,,,-99.99,WSDL version 423,2013-01-23 08:41:00,
2013-01-23 02:43:00,23.9,3.2,30.27,East,90,0.0,2.7,36,-99.99,,,-99.99,WSDL version 423,2013-01-23 08:43:00,
2013-01-23 02:45:00,23.9,3.2,30.27,East,90,0.0,2.7,36,-99.99,,,-99.99,WSDL version 423,2013-01-23 08:45:00,
2013-01-23 02:48:00,23.9,3.2,30.27,East,90,0.0,1.1,36,-99.99,,,-99.99,WSDL version 423,2013-01-23 08:48:00,
2013-01-23 02:49:00,23.9,3.4,30.27,East,90,0.0,1.1,38,-99.99,,,-99.99,WSDL version 423,2013-01-23 08:49:00,
2013-01-23 02:51:00,23.8,3.8,30.27,East,90,0.0,1.1,38,-99.99,,,-99.99,WSDL version 423,2013-01-23 08:51:00,
2013-01-23 02:53:00,23.7,4.0,30.27,East,88,0.3,1.3,38,-99.99,,,-99.99,WSDL version 423,2013-01-23 08:53:00,
2013-01-23 02:58:00,23.7,4.0,30.27,East,98,0.6,2.0,38,-99.99,,,-99.99,WSDL version 423,2013-01-23 08:58:00,
2013-01-23 02:59:00,23.7,4.0,30.27,East,90,0.6,2.0,38,-99.99,,,-99.99,WSDL version 423,2013-01-23 08:59:00,
2013-01-23 03:00:00,23.7,4.0,30.27,East,90,0.1,2.0,38,-99.99,,,-99.99,WSDL version 423,2013-01-23 09:00:00,
2013-01-23 03:04:00,23.7,4.0,30.27,SSE,155,0.0,2.0,38,-99.99,,,-99.99,WSDL version 423,2013-01-23 09:04:00,
2013-01-23 03:05:00,23.7,4.0,30.27,SSE,158,0.3,2.0,38,-99.99,,,-99.99,WSDL version 423,2013-01-23 09:05:00,
2013-01-23 03:07:00,23.7,4.0,30.27,SSE,158,0.1,2.0,38,-99.99,,,-99.99,WSDL version 423,2013-01-23 09:07:00,
2013-01-23 03:09:00,23.6,3.9,30.27,SSE,158,0.0,1.3,38,-99.99,,,-99.99,WSDL version 423,2013-01-23 09:09:00,
2013-01-23 03:14:00,23.5,3.8,30.27,ENE,78,0.0,1.1,38,-99.99,,,-99.99,WSDL version 423,2013-01-23 09:14:00,
2013-01-23 03:15:00,23.5,3.8,30.27,ENE,68,0.0,0.0,38,-99.99,,,-99.99,WSDL version 423,2013-01-23 09:15:00,
2013-01-23 03:17:00,23.5,3.8,30.27,ENE,68,0.0,0.0,38,-99.99,,,-99.99,WSDL version 423,2013-01-23 09:17:00,
2013-01-23 03:20:00,23.4,3.7,30.27,ESE,118,0.0,1.1,38,-99.99,,,-99.99,WSDL version 423,2013-01-23 09:20:00,
2013-01-23 03:24:00,23.3,3.8,30.27,South,180,0.0,1.1,39,-99.99,,,-99.99,WSDL version 423,2013-01-23 09:24:00,
2013-01-23 03:27:00,23.3,4.0,30.27,South,180,0.0,1.1,39,-99.99,,,-99.99,WSDL version 423,2013-01-23 09:27:00,
2013-01-23 03:28:00,23.3,4.0,30.27,South,180,0.0,1.1,39,-99.99,,,-99.99,WSDL version 423,2013-01-23 09:28:00,
2013-01-23 03:30:00,23.2,4.0,30.27,South,180,0.0,0.0,39,-99.99,,,-99.99,WSDL version 423,2013-01-23 09:30:00,
2013-01-23 03:32:00,23.2,4.0,30.27,SSE,148,0.0,1.6,39,-99.99,,,-99.99,WSDL version 423,2013-01-23 09:32:00,
2013-01-23 03:34:00,23.2,4.0,30.27,ENE,68,0.4,1.6,39,-99.99,,,-99.99,WSDL version 423,2013-01-23 09:34:00,
2013-01-23 03:36:00,23.2,4.0,30.27,ENE,75,0.0,1.6,39,-99.99,,,-99.99,WSDL version 423,2013-01-23 09:36:00,
2013-01-23 03:37:00,23.2,4.0,30.27,East,87,0.4,1.6,39,-99.99,,,-99.99,WSDL version 423,2013-01-23 09:37:00,
2013-01-23 03:40:00,23.1,3.9,30.27,East,90,0.0,1.6,39,-99.99,,,-99.99,WSDL version 423,2013-01-23 09:40:00,
2013-01-23 03:41:00,23.1,3.9,30.27,East,90,0.0,1.6,39,-99.99,,,-99.99,WSDL version 423,2013-01-23 09:41:00,
2013-01-23 03:44:00,23.0,3.8,30.27,SE,135,0.0,1.6,39,-99.99,,,-99.99,WSDL version 423,2013-01-23 09:44:00,
2013-01-23 03:46:00,23.0,3.8,30.27,SE,135,0.0,1.3,39,-99.99,,,-99.99,WSDL version 423,2013-01-23 09:46:00,
2013-01-23 03:52:00,22.9,3.7,30.27,SE,135,0.0,1.1,39,-99.99,,,-99.99,WSDL version 423,2013-01-23 09:52:00,
2013-01-23 03:53:00,22.9,3.7,30.27,SE,135,0.0,1.1,39,-99.99,,,-99.99,WSDL version 423,2013-01-23 09:53:00,
2013-01-23 03:55:00,22.8,3.6,30.27,SE,135,0.0,1.1,39,-99.99,,,-99.99,WSDL version 423,2013-01-23 09:55:00,
2013-01-23 03:58:00,22.8,3.6,30.27,SE,135,0.0,0.0,39,-99.99,,,-99.99,WSDL version 423,2013-01-23 09:58:00,
2013-01-23 04:02:00,22.8,3.6,30.27,SE,135,0.0,1.1,39,-99.99,,,-99.99,WSDL version 423,2013-01-23 10:02:00,
2013-01-23 04:03:00,22.8,3.6,30.27,SE,135,0.0,1.1,39,-99.99,,,-99.99,WSDL version 423,2013-01-23 10:03:00,
2013-01-23 04:04:00,22.8,3.6,30.27,SE,135,0.0,1.6,39,-99.99,,,-99.99,WSDL version 423,2013-01-23 10:04:00,
2013-01-23 04:09:00,22.8,3.9,30.27,SSE,158,1.1,2.0,40,-99.99,,,-99.99,WSDL version 423,2013-01-23 10:09:00,
2013-01-23 04:11:00,22.8,4.1,30.27,SSE,158,0.6,2.0,40,-99.99,,,-99.99,WSDL version 423,2013-01-23 10:11:00,
2013-01-23 04:13:00,22.8,4.1,30.27,SSE,158,0.0,2.5,40,-99.99,,,-99.99,WSDL version 423,2013-01-23 10:13:00,
2013-01-23 04:18:00,22.8,4.1,30.27,SSE,158,0.4,2.5,40,-99.99,,,-99.99,WSDL version 423,2013-01-23 10:18:00,
2013-01-23 04:20:00,22.8,4.1,30.27,SSE,158,0.3,2.5,40,-99.99,,,-99.99,WSDL version 423,2013-01-23 10:20:00,
2013-01-23 04:23:00,22.8,4.1,30.27,SSE,158,0.0,2.0,40,-99.99,,,-99.99,WSDL version 423,2013-01-23 10:23:00,
2013-01-23 04:27:00,22.8,4.1,30.27,SSE,158,0.0,2.0,40,-99.99,,,-99.99,WSDL version 423,2013-01-23 10:27:00,
2013-01-23 04:32:00,22.8,4.1,30.24,SSE,158,0.2,1.3,40,-99.99,,,-99.99,WSDL version 423,2013-01-23 10:32:00,
2013-01-23 04:33:00,22.8,4.1,30.24,SSE,158,0.0,1.3,40,-99.99,,,-99.99,WSDL version 423,2013-01-23 10:33:00,
2013-01-23 04:38:00,22.8,4.1,30.24,SSE,158,0.0,1.3,40,-99.99,,,-99.99,WSDL version 423,2013-01-23 10:38:00,
2013-01-23 04:39:00,22.8,4.1,30.24,SSE,158,0.0,1.3,40,-99.99,,,-99.99,WSDL version 423,2013-01-23 10:39:00,
2013-01-23 04:42:00,22.8,4.1,30.24,South,170,0.0,0.0,40,-99.99,,,-99.99,WSDL version 423,2013-01-23 10:42:00,
2013-01-23 04:43:00,22.8,4.1,30.24,South,180,0.0,0.0,40,-99.99,,,-99.99,WSDL version 423,2013-01-23 10:43:00,
2013-01-23 04:45:00,22.8,4.1,30.24,South,180,0.0,0.0,40,-99.99,,,-99.99,WSDL version 423,2013-01-23 10:45:00,
2013-01-23 04:47:00,22.8,4.1,30.24,SSW,197,0.0,0.0,40,-99.99,,,-99.99,WSDL version 423,2013-01-23 10:47:00,
2013-01-23 04:49:00,22.7,4.2,30.24,SW,225,0.0,0.0,41,-99.99,,,-99.99,WSDL version 423,2013-01-23 10:49:00,
2013-01-23 04:50:00,22.7,4.2,30.24,SW,225,0.0,0.0,41,-99.99,,,-99.99,WSDL version 423,2013-01-23 10:50:00,
2013-01-23 04:54:00,22.6,4.4,30.24,SW,225,0.0,0.0,41,-99.99,,,-99.99,WSDL version 423,2013-01-23 10:54:00,
2013-01-23 04:55:00,22.6,4.4,30.24,SW,225,0.0,0.0,41,-99.99,,,-99.99,WSDL version 423,2013-01-23 10:55:00,
2013-01-23 05:00:00,22.6,4.4,30.24,SW,225,0.0,0.0,41,-99.99,,,-99.99,WSDL version 423,2013-01-23 11:00:00,
2013-01-23 05:01:00,22.6,4.4,30.24,SW,225,0.0,0.0,41,-99.99,,,-99.99,WSDL version 423,2013-01-23 11:01:00,
2013-01-23 05:07:00,22.6,4.3,30.24,SW,225,0.0,0.0,41,-99.99,,,-99.99,WSDL version 423,2013-01-23 11:07:00,
2013-01-23 05:09:00,22.5,4.4,30.24,SW,225,0.0,0.0,41,-99.99,,,-99.99,WSDL version 423,2013-01-23 11:09:00,
2013-01-23 05:13:00,22.4,4.6,30.24,SW,225,0.0,0.0,41,-99.99,,,-99.99,WSDL version 423,2013-01-23 11:13:00,
2013-01-23 05:14:00,22.4,4.6,30.24,SW,225,0.0,0.0,41,-99.99,,,-99.99,WSDL version 423,2013-01-23 11:14:00,
2013-01-23 05:15:00,22.4,4.6,30.24,SW,225,0.0,0.0,41,-99.99,,,-99.99,WSDL version 423,2013-01-23 11:15:00,
2013-01-23 05:19:00,22.4,4.6,30.24,SW,225,0.0,0.0,41,-99.99,,,-99.99,WSDL version 423,2013-01-23 11:19:00,
2013-01-23 05:20:00,22.4,4.6,30.24,SW,225,0.0,0.0,41,-99.99,,,-99.99,WSDL version 423,2013-01-23 11:20:00,
2013-01-23 05:25:00,22.3,4.5,30.24,SW,225,0.0,0.0,41,-99.99,,,-99.99,WSDL version 423,2013-01-23 11:25:00,
2013-01-23 05:26:00,22.3,4.5,30.24,SW,225,0.0,0.0,41,-99.99,,,-99.99,WSDL version 423,2013-01-23 11:26:00,
2013-01-23 05:30:00,22.3,4.7,30.24,SW,225,0.0,0.0,42,-99.99,,,-99.99,WSDL version 423,2013-01-23 11:30:00,
2013-01-23 05:32:00,22.2,4.8,30.24,SW,225,0.0,0.0,42,-99.99,,,-99.99,WSDL version 423,2013-01-23 11:32:00,
2013-01-23 05:35:00,22.0,4.7,30.24,SW,225,0.0,0.0,42,-99.99,,,-99.99,WSDL version 423,2013-01-23 11:35:00,
2013-01-23 05:39:00,21.9,4.6,30.24,SW,225,0.0,0.0,42,-99.99,,,-99.99,WSDL version 423,2013-01-23 11:39:00,
2013-01-23 05:43:00,21.9,4.8,30.24,SW,225,0.0,0.0,43,-99.99,,,-99.99,WSDL version 423,2013-01-23 11:43:00,
2013-01-23 05:45:00,21.8,4.9,30.24,SW,225,0.0,0.0,43,-99.99,,,-99.99,WSDL version 423,2013-01-23 11:45:00,
2013-01-23 05:46:00,21.8,4.8,30.24,SW,225,0.0,0.0,43,-99.99,,,-99.99,WSDL version 423,2013-01-23 11:46:00,
2013-01-23 05:51:00,21.7,5.2,30.24,SW,225,0.0,0.0,44,-99.99,,,-99.99,WSDL version 423,2013-01-23 11:51:00,
2013-01-23 05:53:00,21.7,5.1,30.24,SW,225,0.0,0.0,44,-99.99,,,-99.99,WSDL version 423,2013-01-23 11:53:00,
2013-01-23 05:54:00,21.7,5.1,30.24,SW,225,0.0,0.0,43,-99.99,,,-99.99,WSDL version 423,2013-01-23 11:54:00,
2013-01-23 05:58:00,21.7,4.9,30.24,SW,225,0.0,0.0,44,-99.99,,,-99.99,WSDL version 423,2013-01-23 11:58:00,
2013-01-23 05:59:00,21.7,5.0,30.24,SW,225,0.0,0.0,44,-99.99,,,-99.99,WSDL version 423,2013-01-23 11:59:00,
2013-01-23 06:00:00,21.7,5.0,30.24,SW,225,0.0,0.0,44,-99.99,,,-99.99,WSDL version 423,2013-01-23 12:00:00,
2013-01-23 06:03:00,21.7,5.2,30.24,SW,225,0.0,0.0,44,-99.99,,,-99.99,WSDL version 423,2013-01-23 12:03:00,
2013-01-23 06:04:00,21.7,5.3,30.24,SW,225,0.0,0.0,45,-99.99,,,-99.99,WSDL version 423,2013-01-23 12:04:00,
2013-01-23 06:06:00,21.7,5.4,30.24,SW,225,0.0,0.0,45,-99.99,,,-99.99,WSDL version 423,2013-01-23 12:06:00,
2013-01-23 06:09:00,21.8,5.7,30.24,SW,225,0.0,0.0,45,-99.99,,,-99.99,WSDL version 423,2013-01-23 12:09:00,
2013-01-23 06:12:00,21.9,5.7,30.24,SW,225,0.0,0.0,45,-99.99,,,-99.99,WSDL version 423,2013-01-23 12:12:00,
2013-01-23 06:13:00,21.9,5.8,30.24,SW,225,0.0,0.0,45,-99.99,,,-99.99,WSDL version 423,2013-01-23 12:13:00,
2013-01-23 06:14:00,21.9,5.8,30.24,SW,225,0.0,0.0,45,-99.99,,,-99.99,WSDL version 423,2013-01-23 12:14:00,
2013-01-23 06:19:00,21.7,5.6,30.24,SW,225,0.0,0.0,45,-99.99,,,-99.99,WSDL version 423,2013-01-23 12:19:00,
2013-01-23 06:21:00,21.7,5.6,30.24,SW,225,0.0,0.0,45,-99.99,,,-99.99,WSDL version 423,2013-01-23 12:21:00,
2013-01-23 06:23:00,21.7,5.6,30.24,SW,225,0.0,0.0,45,-99.99,,,-99.99,WSDL version 423,2013-01-23 12:23:00,
2013-01-23 06:27:00,21.7,5.6,30.24,SW,225,0.0,0.0,45,-99.99,,,-99.99,WSDL version 423,2013-01-23 12:27:00,
2013-01-23 06:29:00,21.7,5.6,30.24,SW,225,0.0,0.0,45,-99.99,,,-99.99,WSDL version 423,2013-01-23 12:29:00,
2013-01-23 06:30:00,21.7,5.6,30.24,SW,220,0.0,0.9,45,-99.99,,,-99.99,WSDL version 423,2013-01-23 12:30:00,
2013-01-23 06:32:00,21.7,5.7,30.24,South,180,0.0,1.1,46,-99.99,,,-99.99,WSDL version 423,2013-01-23 12:32:00,
2013-01-23 06:34:00,21.7,5.9,30.24,South,180,0.0,1.1,46,-99.99,,,-99.99,WSDL version 423,2013-01-23 12:34:00,
2013-01-23 06:35:00,21.7,6.0,30.24,South,180,0.0,1.1,46,-99.99,,,-99.99,WSDL version 423,2013-01-23 12:35:00,
2013-01-23 06:38:00,21.7,6.0,30.24,South,180,0.0,1.1,46,-99.99,,,-99.99,WSDL version 423,2013-01-23 12:38:00,
2013-01-23 06:40:00,21.8,6.1,30.24,South,180,0.0,1.1,47,-99.99,,,-99.99,WSDL version 423,2013-01-23 12:40:00,
2013-01-23 06:43:00,21.9,6.4,30.24,South,180,0.0,0.9,47,-99.99,,,-99.99,WSDL version 423,2013-01-23 12:43:00,
2013-01-23 06:45:00,21.9,6.6,30.24,South,180,0.0,0.9,47,-99.99,,,-99.99,WSDL version 423,2013-01-23 12:45:00,
2013-01-23 06:48:00,21.9,6.6,30.24,South,180,0.0,0.9,47,-99.99,,,-99.99,WSDL version 423,2013-01-23 12:48:00,
2013-01-23 06:53:00,21.9,6.5,30.24,South,180,0.0,0.9,47,-99.99,,,-99.99,WSDL version 423,2013-01-23 12:53:00,
2013-01-23 06:54:00,21.9,6.6,30.24,South,180,0.0,0.0,47,-99.99,,,-99.99,WSDL version 423,2013-01-23 12:54:00,
2013-01-23 06:55:00,21.9,6.5,30.24,South,180,0.0,0.0,46,-99.99,,,-99.99,WSDL version 423,2013-01-23 12:55:00,
2013-01-23 06:59:00,22.1,6.6,30.24,South,180,0.0,0.0,47,-99.99,,,-99.99,WSDL version 423,2013-01-23 12:59:00,
2013-01-23 07:00:00,22.1,6.6,30.24,South,180,0.0,0.0,46,-99.99,,,-99.99,WSDL version 423,2013-01-23 13:00:00,
2013-01-23 07:03:00,22.1,6.4,30.24,South,180,0.0,0.0,46,-99.99,,,-99.99,WSDL version 423,2013-01-23 13:03:00,
2013-01-23 07:05:00,22.1,6.5,30.24,South,180,0.0,0.0,47,-99.99,,,-99.99,WSDL version 423,2013-01-23 13:05:00,
2013-01-23 07:06:00,22.2,6.6,30.24,South,180,0.0,0.0,47,-99.99,,,-99.99,WSDL version 423,2013-01-23 13:06:00,
2013-01-23 07:07:00,22.2,6.7,30.24,South,180,0.0,0.0,47,-99.99,,,-99.99,WSDL version 423,2013-01-23 13:07:00,
2013-01-23 07:08:00,22.2,6.9,30.24,South,180,0.0,0.0,47,-99.99,,,-99.99,WSDL version 423,2013-01-23 13:08:00,
2013-01-23 07:10:00,22.3,6.9,30.24,South,180,0.0,0.0,47,-99.99,,,-99.99,WSDL version 423,2013-01-23 13:10:00,
2013-01-23 07:13:00,22.3,6.9,30.24,South,180,0.0,0.0,47,-99.99,,,-99.99,WSDL version 423,2013-01-23 13:13:00,
2013-01-23 07:15:00,22.3,7.0,30.24,South,180,0.0,1.1,48,-99.99,,,-99.99,WSDL version 423,2013-01-23 13:15:00,
2013-01-23 07:16:00,22.4,7.2,30.24,South,172,0.0,1.6,48,-99.99,,,-99.99,WSDL version 423,2013-01-23 13:16:00,
2013-01-23 07:18:00,22.4,7.3,30.24,SSE,158,0.9,1.6,48,-99.99,,,-99.99,WSDL version 423,2013-01-23 13:18:00,
2013-01-23 07:20:00,22.5,7.5,30.24,SSE,158,0.5,1.6,48,-99.99,,,-99.99,WSDL version 423,2013-01-23 13:20:00,
2013-01-23 07:23:00,22.7,7.7,30.24,SSE,158,0.0,1.6,48,-99.99,,,-99.99,WSDL version 423,2013-01-23 13:23:00,
2013-01-23 07:26:00,22.8,7.8,30.24,SSE,158,0.0,1.3,48,-99.99,,,-99.99,WSDL version 423,2013-01-23 13:26:00,
2013-01-23 07:28:00,22.9,7.8,30.24,SSE,158,0.0,1.1,48,-99.99,,,-99.99,WSDL version 423,2013-01-23 13:28:00,
2013-01-23 07:29:00,22.9,7.9,30.24,SSE,158,0.3,1.1,48,-99.99,,,-99.99,WSDL version 423,2013-01-23 13:29:00,
2013-01-23 07:31:00,23.1,8.0,30.24,SSE,158,0.2,1.1,48,-99.99,,,-99.99,WSDL version 423,2013-01-23 13:31:00,
2013-01-23 07:34:00,23.3,8.2,30.24,SSE,158,0.0,1.1,48,-99.99,,,-99.99,WSDL version 423,2013-01-23 13:34:00,
2013-01-23 07:37:00,23.6,8.5,30.24,SSE,158,0.3,1.1,48,-99.99,,,-99.99,WSDL version 423,2013-01-23 13:37:00,
2013-01-23 07:38:00,23.6,8.5,30.24,SSE,158,0.4,1.6,48,-99.99,,,-99.99,WSDL version 423,2013-01-23 13:38:00,
2013-01-23 07:39:00,23.7,8.5,30.24,SSE,158,0.5,1.6,47,-99.99,,,-99.99,WSDL version 423,2013-01-23 13:39:00,
2013-01-23 07:40:00,23.8,8.6,30.24,SSE,158,0.9,1.6,48,-99.99,,,-99.99,WSDL version 423,2013-01-23 13:40:00,
2013-01-23 07:43:00,24.0,8.8,30.24,SSE,158,1.1,2.0,48,-99.99,,,-99.99,WSDL version 423,2013-01-23 13:43:00,
2013-01-23 07:45:00,24.2,9.1,30.24,SSE,153,1.3,2.2,48,-99.99,,,-99.99,WSDL version 423,2013-01-23 13:45:00,
2013-01-23 07:47:00,24.3,9.2,30.24,SSE,160,1.2,2.5,48,-99.99,,,-99.99,WSDL version 423,2013-01-23 13:47:00,
2013-01-23 07:49:00,24.3,9.2,30.24,SSE,160,1.3,2.5,48,-99.99,,,-99.99,WSDL version 423,2013-01-23 13:49:00,
2013-01-23 07:50:00,24.4,9.2,30.24,SSE,158,1.4,2.5,48,-99.99,,,-99.99,WSDL version 423,2013-01-23 13:50:00,
2013-01-23 07:53:00,24.6,9.5,30.24,SSE,158,1.7,2.7,48,-99.99,,,-99.99,WSDL version 423,2013-01-23 13:53:00,
2013-01-23 07:54:00,24.8,9.6,30.24,SSE,161,1.8,2.7,48,-99.99,,,-99.99,WSDL version 423,2013-01-23 13:54:00,
2013-01-23 07:55:00,24.9,9.7,30.24,SSE,165,1.7,2.7,48,-99.99,,,-99.99,WSDL version 423,2013-01-23 13:55:00,
2013-01-23 07:58:00,25.4,10.2,30.24,SSE,155,2.0,2.9,48,-99.99,,,-99.99,WSDL version 423,2013-01-23 13:58:00,
2013-01-23 08:04:00,26.3,11.1,30.24,South,180,2.3,3.8,48,-99.99,,,-99.99,WSDL version 423,2013-01-23 14:04:00,
2013-01-23 08:07:00,26.6,11.3,30.24,SE,143,2.4,3.8,48,-99.99,,,-99.99,WSDL version 423,2013-01-23 14:07:00,
2013-01-23 08:08:00,26.7,11.4,30.24,SSE,150,2.0,3.8,48,-99.99,,,-99.99,WSDL version 423,2013-01-23 14:08:00,
2013-01-23 08:11:00,27.1,11.8,30.24,SSE,164,2.1,3.6,48,-99.99,,,-99.99,WSDL version 423,2013-01-23 14:11:00,
2013-01-23 08:16:00,27.6,11.9,30.24,SSE,160,2.6,4.0,47,-99.99,,,-99.99,WSDL version 423,2013-01-23 14:16:00,
2013-01-23 08:17:00,27.7,12.0,30.24,SSE,153,2.2,4.0,47,-99.99,,,-99.99,WSDL version 423,2013-01-23 14:17:00,
2013-01-23 08:18:00,27.8,12.1,30.24,SSE,166,1.9,4.0,47,-99.99,,,-99.99,WSDL version 423,2013-01-23 14:18:00,
2013-01-23 08:22:00,28.3,12.6,30.24,SSE,152,2.1,4.0,47,-99.99,,,-99.99,WSDL version 423,2013-01-23 14:22:00,
2013-01-23 08:27:00,29.1,12.9,30.24,SSE,158,2.2,4.3,45,-99.99,,,-99.99,WSDL version 423,2013-01-23 14:27:00,
2013-01-23 08:28:00,29.4,13.0,30.24,SSE,158,2.2,4.3,45,-99.99,,,-99.99,WSDL version 423,2013-01-23 14:28:00,
2013-01-23 08:29:00,29.5,13.1,30.24,South,169,2.5,4.3,45,-99.99,,,-99.99,WSDL version 423,2013-01-23 14:29:00,
2013-01-23 08:32:00,30.2,13.5,30.24,South,169,2.7,4.3,45,-99.99,,,-99.99,WSDL version 423,2013-01-23 14:32:00,
2013-01-23 08:34:00,30.5,13.6,30.24,SE,145,2.7,4.3,44,-99.99,,,-99.99,WSDL version 423,2013-01-23 14:34:00,
2013-01-23 08:35:00,30.7,13.6,30.24,SSE,148,2.7,4.3,43,-99.99,,,-99.99,WSDL version 423,2013-01-23 14:35:00,
2013-01-23 08:40:00,31.3,13.3,30.24,SSE,160,2.5,6.0,41,-99.99,,,-99.99,WSDL version 423,2013-01-23 14:40:00,
2013-01-23 08:44:00,31.9,12.8,30.24,SSE,158,2.4,6.0,41,-99.99,,,-99.99,WSDL version 423,2013-01-23 14:44:00,
2013-01-23 08:45:00,32.1,12.4,30.24,SSE,163,2.6,6.0,41,-99.99,,,-99.99,WSDL version 423,2013-01-23 14:45:00,
2013-01-23 08:46:00,32.3,12.0,30.24,SE,143,2.3,6.0,41,-99.99,,,-99.99,WSDL version 423,2013-01-23 14:46:00,
2013-01-23 08:51:00,33.3,11.9,30.24,South,183,2.0,4.0,41,-99.99,,,-99.99,WSDL version 423,2013-01-23 14:51:00,
2013-01-23 08:53:00,33.6,11.9,30.24,SSE,168,2.7,4.3,40,-99.99,,,-99.99,WSDL version 423,2013-01-23 14:53:00,
2013-01-23 08:54:00,33.7,11.9,30.24,South,172,2.4,4.3,40,-99.99,,,-99.99,WSDL version 423,2013-01-23 14:54:00,
2013-01-23 09:03:00,34.8,12.6,30.24,SE,143,1.8,4.3,39,-99.99,,,-99.99,WSDL version 423,2013-01-23 15:03:00,
2013-01-23 09:04:00,35.0,12.6,30.24,SSE,166,2.3,4.3,39,-99.99,,,-99.99,WSDL version 423,2013-01-23 15:04:00,
2013-01-23 09:06:00,35.1,12.7,30.24,SSE,158,2.9,3.8,39,-99.99,,,-99.99,WSDL version 423,2013-01-23 15:06:00,
2013-01-23 09:09:00,35.4,12.7,30.24,SE,138,2.3,3.8,39,-99.99,,,-99.99,WSDL version 423,2013-01-23 15:09:00,
2013-01-23 09:10:00,35.4,12.8,30.24,SSE,161,2.3,3.8,39,-99.99,,,-99.99,WSDL version 423,2013-01-23 15:10:00,
2013-01-23 09:11:00,35.5,12.9,30.24,SSE,166,2.3,3.8,39,-99.99,,,-99.99,WSDL version 423,2013-01-23 15:11:00,
2013-01-23 09:14:00,35.8,12.9,30.24,SSE,163,2.6,3.8,39,-99.99,,,-99.99,WSDL version 423,2013-01-23 15:14:00,
2013-01-23 09:16:00,35.9,12.8,30.24,SE,145,3.0,4.0,38,-99.99,,,-99.99,WSDL version 423,2013-01-23 15:16:00,
2013-01-23 09:18:00,36.1,12.9,30.24,SSE,151,2.7,4.0,38,-99.99,,,-99.99,WSDL version 423,2013-01-23 15:18:00,
2013-01-23 09:20:00,36.2,13.0,30.24,SSE,163,2.5,4.0,38,-99.99,,,-99.99,WSDL version 423,2013-01-23 15:20:00,
2013-01-23 09:21:00,36.4,13.1,30.24,SSE,162,1.6,4.0,38,-99.99,,,-99.99,WSDL version 423,2013-01-23 15:21:00,
2013-01-23 09:25:00,37.1,13.7,30.24,SE,141,2.5,5.8,38,-99.99,,,-99.99,WSDL version 423,2013-01-23 15:25:00,
2013-01-23 09:26:00,37.2,13.8,30.24,SSE,152,2.8,5.8,38,-99.99,,,-99.99,WSDL version 423,2013-01-23 15:26:00,
2013-01-23 09:27:00,37.3,13.9,30.24,SSW,211,2.3,5.8,38,-99.99,,,-99.99,WSDL version 423,2013-01-23 15:27:00,
2013-01-23 09:32:00,37.7,13.9,30.24,SE,132,2.8,5.8,37,-99.99,,,-99.99,WSDL version 423,2013-01-23 15:32:00,
2013-01-23 18:55:00,43.1,23.3,30.06,NW,315,0.0,0.0,45,0.00,,,0.00,WSDL version 423,2013-01-24 00:55:00,
2013-01-23 18:56:00,43.1,23.3,30.06,NW,315,0.0,0.0,45,0.00,,,0.00,WSDL version 423,2013-01-24 00:56:00,
2013-01-23 18:57:00,43.1,23.3,30.06,NW,315,0.0,0.9,45,0.00,,,0.00,WSDL version 423,2013-01-24 00:57:00,
2013-01-23 19:00:00,43.0,23.2,30.06,NW,315,0.0,0.9,45,0.00,,,0.00,WSDL version 423,2013-01-24 01:00:00,
2013-01-23 19:02:00,43.0,23.1,30.06,NW,315,0.0,0.9,45,0.00,,,0.00,WSDL version 423,2013-01-24 01:02:00,
2013-01-23 19:05:00,42.9,23.1,30.06,NW,315,0.0,0.9,45,0.00,,,0.00,WSDL version 423,2013-01-24 01:05:00,
2013-01-23 19:08:00,42.7,22.9,30.06,NW,315,0.0,1.3,45,0.00,,,0.00,WSDL version 423,2013-01-24 01:08:00,
2013-01-23 19:09:00,42.7,23.0,30.06,NW,315,0.0,1.3,46,0.00,,,0.00,WSDL version 423,2013-01-24 01:09:00,
2013-01-23 19:11:00,42.6,22.9,30.06,NW,315,0.0,1.3,45,0.00,,,0.00,WSDL version 423,2013-01-24 01:11:00,
2013-01-23 19:14:00,42.4,23.0,30.06,NNW,332,0.0,1.3,46,0.00,,,0.00,WSDL version 423,2013-01-24 01:14:00,
2013-01-23 19:19:00,42.3,23.0,30.09,West,270,0.0,1.1,46,0.00,,,0.00,WSDL version 423,2013-01-24 01:19:00,
2013-01-23 19:20:00,42.2,22.9,30.09,West,270,0.0,1.1,46,0.00,,,0.00,WSDL version 423,2013-01-24 01:20:00,
2013-01-23 19:23:00,42.1,22.8,30.09,West,270,0.0,1.1,46,0.00,,,0.00,WSDL version 423,2013-01-24 01:23:00,
2013-01-23 19:26:00,41.9,22.7,30.09,West,270,0.0,1.1,46,0.00,,,0.00,WSDL version 423,2013-01-24 01:26:00,
2013-01-23 19:29:00,41.8,22.6,30.09,West,270,0.0,0.9,46,0.00,,,0.00,WSDL version 423,2013-01-24 01:29:00,
2013-01-23 19:31:00,41.7,22.5,30.09,West,270,0.0,0.9,47,0.00,,,0.00,WSDL version 423,2013-01-24 01:31:00,
2013-01-23 19:36:00,41.3,22.6,30.09,West,270,0.0,0.9,47,0.00,,,0.00,WSDL version 423,2013-01-24 01:36:00,
2013-01-23 19:39:00,41.2,22.4,30.09,West,270,0.0,1.3,47,0.00,,,0.00,WSDL version 423,2013-01-24 01:39:00,
2013-01-23 19:42:00,41.0,22.3,30.09,West,270,0.2,2.0,47,0.00,,,0.00,WSDL version 423,2013-01-24 01:42:00,
2013-01-23 19:45:00,40.9,22.4,30.09,West,270,0.1,2.0,47,0.00,,,0.00,WSDL version 423,2013-01-24 01:45:00,
2013-01-23 19:48:00,40.7,22.3,30.09,West,270,1.3,2.2,48,0.00,,,0.00,WSDL version 423,2013-01-24 01:48:00,
2013-01-23 19:50:00,40.7,22.3,30.09,West,270,1.1,2.2,48,0.00,,,0.00,WSDL version 423,2013-01-24 01:50:00,
2013-01-23 19:52:00,40.6,22.4,30.09,West,270,0.6,2.2,48,0.00,,,0.00,WSDL version 423,2013-01-24 01:52:00,
2013-01-23 19:53:00,40.6,22.4,30.09,West,270,0.7,2.2,48,0.00,,,0.00,WSDL version 423,2013-01-24 01:53:00,
2013-01-23 19:56:00,40.6,22.5,30.09,West,278,1.2,2.5,48,0.00,,,0.00,WSDL version 423,2013-01-24 01:56:00,
2013-01-23 19:57:00,40.6,22.5,30.09,West,270,1.3,2.5,49,0.00,,,0.00,WSDL version 423,2013-01-24 01:57:00,
2013-01-23 19:58:00,40.6,22.5,30.09,West,270,1.1,2.5,48,0.00,,,0.00,WSDL version 423,2013-01-24 01:58:00,
2013-01-23 20:03:00,40.4,22.3,30.09,West,270,1.5,2.5,49,0.00,,,0.00,WSDL version 423,2013-01-24 02:03:00,
2013-01-23 20:05:00,40.4,22.5,30.09,WNW,293,1.5,2.5,50,0.00,,,0.00,WSDL version 423,2013-01-24 02:05:00,
2013-01-23 20:08:00,40.3,22.8,30.09,WNW,293,0.9,2.5,50,0.00,,,0.00,WSDL version 423,2013-01-24 02:08:00,
2013-01-23 20:10:00,40.2,22.7,30.09,WNW,293,0.0,2.5,49,0.00,,,0.00,WSDL version 423,2013-01-24 02:10:00,
2013-01-23 20:13:00,40.1,22.6,30.09,WNW,293,0.0,2.5,50,0.00,,,0.00,WSDL version 423,2013-01-24 02:13:00,
2013-01-23 20:17:00,39.9,22.5,30.09,WNW,293,0.0,0.0,50,0.00,,,0.00,WSDL version 423,2013-01-24 02:17:00,
2013-01-23 20:18:00,39.9,22.5,30.09,WNW,293,0.0,0.0,50,0.00,,,0.00,WSDL version 423,2013-01-24 02:18:00,
2013-01-23 20:19:00,39.9,22.5,30.09,WNW,293,0.0,0.0,50,0.00,,,0.00,WSDL version 423,2013-01-24 02:19:00,
2013-01-23 20:22:00,39.8,22.6,30.09,WNW,293,0.0,0.0,50,0.00,,,0.00,WSDL version 423,2013-01-24 02:22:00,
2013-01-23 20:24:00,39.7,22.6,30.09,WNW,293,0.0,0.0,50,0.00,,,0.00,WSDL version 423,2013-01-24 02:24:00,
2013-01-23 20:25:00,39.6,22.5,30.09,WNW,293,0.0,0.0,50,0.00,,,0.00,WSDL version 423,2013-01-24 02:25:00,
2013-01-23 20:26:00,39.6,22.4,30.09,WNW,293,0.0,0.0,50,0.00,,,0.00,WSDL version 423,2013-01-24 02:26:00,
2013-01-23 20:31:00,39.5,22.4,30.09,WNW,293,0.4,1.1,51,0.00,,,0.00,WSDL version 423,2013-01-24 02:31:00,
2013-01-23 20:32:00,39.5,22.5,30.09,WNW,293,0.3,1.1,51,0.00,,,0.00,WSDL version 423,2013-01-24 02:32:00,
2013-01-23 20:37:00,39.4,22.6,30.09,WNW,293,0.0,1.6,51,0.00,,,0.00,WSDL version 423,2013-01-24 02:37:00,
2013-01-23 20:38:00,39.4,22.6,30.09,WNW,293,0.0,1.6,51,0.00,,,0.00,WSDL version 423,2013-01-24 02:38:00,
2013-01-23 20:43:00,39.3,22.7,30.09,WNW,293,0.0,1.6,52,0.00,,,0.00,WSDL version 423,2013-01-24 02:43:00,
2013-01-23 20:44:00,39.3,22.8,30.09,WNW,284,0.1,2.2,52,0.00,,,0.00,WSDL version 423,2013-01-24 02:44:00,
2013-01-23 20:46:00,39.2,22.6,30.09,West,270,1.1,2.2,51,0.00,,,0.00,WSDL version 423,2013-01-24 02:46:00,
2013-01-23 20:48:00,39.1,22.6,30.09,West,278,1.3,2.2,52,0.00,,,0.00,WSDL version 423,2013-01-24 02:48:00,
2013-01-23 20:51:00,38.9,22.6,30.09,West,270,1.1,2.2,52,0.00,,,0.00,WSDL version 423,2013-01-24 02:51:00,
2013-01-23 20:52:00,38.9,22.5,30.09,West,270,1.1,2.2,52,0.00,,,0.00,WSDL version 423,2013-01-24 02:52:00,
2013-01-23 20:53:00,38.8,22.5,30.09,West,270,1.2,2.2,52,0.00,,,0.00,WSDL version 423,2013-01-24 02:53:00,
2013-01-23 20:56:00,38.7,22.4,30.09,West,270,0.0,2.0,52,0.00,,,0.00,WSDL version 423,2013-01-24 02:56:00,
2013-01-23 20:58:00,38.6,22.5,30.09,West,270,0.0,2.0,52,0.00,,,0.00,WSDL version 423,2013-01-24 02:58:00,
2013-01-23 21:03:00,38.5,22.7,30.12,West,270,0.0,1.1,53,0.00,,,0.00,WSDL version 423,2013-01-24 03:03:00,
2013-01-23 21:04:00,38.5,22.6,30.12,West,270,0.0,1.1,52,0.00,,,0.00,WSDL version 423,2013-01-24 03:04:00,
2013-01-23 21:07:00,38.4,22.8,30.12,West,270,0.9,2.0,53,0.00,,,0.00,WSDL version 423,2013-01-24 03:07:00,
2013-01-23 21:08:00,38.4,22.7,30.12,West,270,1.0,2.0,52,0.00,,,0.00,WSDL version 423,2013-01-24 03:08:00,
2013-01-23 21:12:00,38.3,22.4,30.12,West,270,0.6,2.0,52,0.00,,,0.00,WSDL version 423,2013-01-24 03:12:00,
2013-01-23 21:14:00,38.3,22.5,30.12,West,270,1.0,2.0,53,0.00,,,0.00,WSDL version 423,2013-01-24 03:14:00,
2013-01-23 21:17:00,38.3,22.8,30.12,West,270,0.8,2.2,53,0.00,,,0.00,WSDL version 423,2013-01-24 03:17:00,
2013-01-23 21:18:00,38.3,22.8,30.12,West,270,0.3,2.2,53,0.00,,,0.00,WSDL version 423,2013-01-24 03:18:00,
2013-01-23 21:22:00,38.3,22.8,30.12,West,270,0.8,2.2,53,0.00,,,0.00,WSDL version 423,2013-01-24 03:22:00,
2013-01-23 21:23:00,38.3,22.8,30.12,West,270,0.4,2.2,53,0.00,,,0.00,WSDL version 423,2013-01-24 03:23:00,
2013-01-23 21:28:00,38.2,23.0,30.12,West,270,0.0,1.6,54,0.00,,,0.00,WSDL version 423,2013-01-24 03:28:00,
2013-01-23 21:34:00,38.0,22.9,30.12,West,270,1.0,1.6,54,0.00,,,0.00,WSDL version 423,2013-01-24 03:34:00,
2013-01-23 21:35:00,37.9,22.9,30.12,West,270,1.0,1.6,54,0.00,,,0.00,WSDL version 423,2013-01-24 03:35:00,
2013-01-23 21:37:00,37.9,22.9,30.12,West,270,1.0,1.6,54,0.00,,,0.00,WSDL version 423,2013-01-24 03:37:00,
2013-01-23 21:40:00,37.9,22.8,30.12,West,270,0.4,2.5,54,0.00,,,0.00,WSDL version 423,2013-01-24 03:40:00,
2013-01-23 21:44:00,37.7,22.9,30.12,WNW,286,0.9,2.5,55,0.00,,,0.00,WSDL version 423,2013-01-24 03:44:00,
2013-01-23 21:45:00,37.7,23.0,30.12,WNW,293,0.4,2.5,55,0.00,,,0.00,WSDL version 423,2013-01-24 03:45:00,
2013-01-23 21:50:00,37.7,23.0,30.12,West,270,0.8,2.0,55,0.00,,,0.00,WSDL version 423,2013-01-24 03:50:00,
2013-01-23 21:52:00,37.6,23.0,30.12,West,270,0.3,2.2,55,0.00,,,0.00,WSDL version 423,2013-01-24 03:52:00,
2013-01-23 21:55:00,37.5,22.7,30.12,West,278,1.4,2.2,55,0.00,,,0.00,WSDL version 423,2013-01-24 03:55:00,
2013-01-23 21:57:00,37.4,22.7,30.12,WNW,283,1.2,2.2,55,0.00,,,0.00,WSDL version 423,2013-01-24 03:57:00,
2013-01-23 22:00:00,37.4,22.8,30.12,West,270,0.0,2.2,55,0.00,,,0.00,WSDL version 423,2013-01-24 04:00:00,
2013-01-23 22:02:00,37.3,22.8,30.12,West,270,0.0,2.2,56,0.00,,,0.00,WSDL version 423,2013-01-24 04:02:00,
2013-01-23 22:06:00,37.1,22.9,30.12,WNW,293,0.4,1.6,56,0.00,,,0.00,WSDL version 423,2013-01-24 04:06:00,
2013-01-23 22:07:00,37.1,22.9,30.12,WNW,293,0.3,1.3,56,0.00,,,0.00,WSDL version 423,2013-01-24 04:07:00,
2013-01-23 22:11:00,37.0,22.8,30.12,WNW,293,0.0,1.3,56,0.00,,,0.00,WSDL version 423,2013-01-24 04:11:00,
2013-01-23 22:15:00,37.0,22.8,30.12,WNW,293,0.4,1.1,56,0.00,,,0.00,WSDL version 423,2013-01-24 04:15:00,
2013-01-23 22:18:00,37.1,22.9,30.12,WNW,293,0.0,1.1,57,0.00,,,0.00,WSDL version 423,2013-01-24 04:18:00,
2013-01-23 22:20:00,37.1,23.0,30.12,WNW,293,0.0,1.1,56,0.00,,,0.00,WSDL version 423,2013-01-24 04:20:00,
2013-01-23 22:25:00,37.0,23.0,30.12,NNW,338,1.0,2.0,57,0.00,,,0.00,WSDL version 423,2013-01-24 04:25:00,
2013-01-23 22:29:00,37.1,23.5,30.12,North,360,0.0,2.2,57,0.00,,,0.00,WSDL version 423,2013-01-24 04:29:00,
2013-01-23 22:30:00,37.2,23.6,30.12,North,360,0.1,2.2,58,0.00,,,0.00,WSDL version 423,2013-01-24 04:30:00,
2013-01-23 22:31:00,37.2,23.7,30.12,North,360,0.4,2.2,58,0.00,,,0.00,WSDL version 423,2013-01-24 04:31:00,
2013-01-23 22:36:00,37.3,23.7,30.12,NNW,344,0.6,2.2,57,0.00,,,0.00,WSDL version 423,2013-01-24 04:36:00,
2013-01-23 22:38:00,37.4,23.7,30.12,NNW,338,0.0,2.2,57,0.00,,,0.00,WSDL version 423,2013-01-24 04:38:00,
2013-01-23 22:39:00,37.4,23.6,30.12,NNW,338,0.1,2.2,57,0.00,,,0.00,WSDL version 423,2013-01-24 04:39:00,
2013-01-23 22:44:00,37.4,23.5,30.12,NNW,338,0.0,1.1,57,0.00,,,0.00,WSDL version 423,2013-01-24 04:44:00,
2013-01-23 22:46:00,37.4,23.5,30.12,NNW,338,0.0,1.1,57,0.00,,,0.00,WSDL version 423,2013-01-24 04:46:00,
2013-01-23 22:48:00,37.4,23.5,30.12,NNW,338,0.0,1.1,57,0.00,,,0.00,WSDL version 423,2013-01-24 04:48:00,
2013-01-23 22:51:00,37.4,23.5,30.12,NNW,338,0.0,1.1,57,0.00,,,0.00,WSDL version 423,2013-01-24 04:51:00,
2013-01-23 22:55:00,37.2,23.4,30.12,NNW,338,0.0,1.1,57,0.00,,,0.00,WSDL version 423,2013-01-24 04:55:00,
2013-01-23 22:56:00,37.2,23.4,30.12,NNW,338,0.0,1.1,57,0.00,,,0.00,WSDL version 423,2013-01-24 04:56:00,
2013-01-23 23:02:00,37.0,23.4,30.15,NNW,338,0.0,0.0,58,0.00,,,0.00,WSDL version 423,2013-01-24 05:02:00,
2013-01-23 23:07:00,37.0,23.6,30.15,NNW,338,0.0,0.0,58,0.00,,,0.00,WSDL version 423,2013-01-24 05:07:00,
2013-01-23 23:08:00,37.0,23.6,30.15,NNW,338,0.0,0.0,58,0.00,,,0.00,WSDL version 423,2013-01-24 05:08:00,
2013-01-23 23:11:00,36.9,23.5,30.15,NNW,338,0.0,0.0,58,0.00,,,0.00,WSDL version 423,2013-01-24 05:11:00,
2013-01-23 23:13:00,36.8,23.4,30.15,NNW,338,0.0,0.0,58,0.00,,,0.00,WSDL version 423,2013-01-24 05:13:00,
2013-01-23 23:16:00,36.8,23.4,30.15,NNW,338,0.0,1.1,58,0.00,,,0.00,WSDL version 423,2013-01-24 05:16:00,
2013-01-23 23:18:00,36.8,23.6,30.15,NNW,338,0.0,1.1,59,0.00,,,0.00,WSDL version 423,2013-01-24 05:18:00,
2013-01-23 23:23:00,36.7,23.6,30.15,WNW,301,0.2,1.3,59,0.00,,,0.00,WSDL version 423,2013-01-24 05:23:00,
2013-01-23 23:26:00,36.7,23.6,30.15,WNW,293,0.0,1.3,59,0.00,,,0.00,WSDL version 423,2013-01-24 05:26:00,
2013-01-23 23:28:00,36.7,23.6,30.15,WNW,301,0.7,1.6,59,0.00,,,0.00,WSDL version 423,2013-01-24 05:28:00,
2013-01-23 23:30:00,36.7,23.6,30.15,WNW,293,0.3,1.6,59,0.00,,,0.00,WSDL version 423,2013-01-24 05:30:00,
2013-01-23 23:35:00,36.7,24.0,30.15,NNW,331,0.9,1.6,60,0.00,,,0.00,WSDL version 423,2013-01-24 05:35:00,
2013-01-23 23:38:00,36.7,24.0,30.15,WNW,293,0.3,1.3,60,0.00,,,0.00,WSDL version 423,2013-01-24 05:38:00,
2013-01-23 23:40:00,36.7,24.0,30.15,WNW,293,0.0,1.3,60,0.00,,,0.00,WSDL version 423,2013-01-24 05:40:00,
2013-01-23 23:44:00,36.7,24.1,30.15,NNE,23,1.0,2.5,61,0.00,,,0.00,WSDL version 423,2013-01-24 05:44:00,
2013-01-23 23:49:00,36.8,24.5,30.15,NW,318,1.2,2.5,61,0.00,,,0.00,WSDL version 423,2013-01-24 05:49:00,
2013-01-23 23:52:00,36.8,24.4,30.15,NW,315,0.3,2.5,60,0.00,,,0.00,WSDL version 423,2013-01-24 05:52:00,
2013-01-23 23:54:00,36.7,24.2,30.15,NNW,328,0.0,2.5,60,0.00,,,0.00,WSDL version 423,2013-01-24 05:54:00,
2013-01-23 23:58:00,36.7,24.0,30.15,North,360,0.0,1.6,60,0.00,,,0.00,WSDL version 423,2013-01-24 05:58:00,